Billund, Denmark

11:00 PM CEST on October 17, 2017 (GMT +0200)
Billund

Weather History for EKBI - December, 2012

Change the Weather History Date:

Wednesday, December 5, 2012

  Actual Average Record
Temperature  
Mean Temperature 16 °F -  
Max Temperature 21 °F 37 °F 53 °F (2006)
Min Temperature 12 °F 29 °F 12 °F (2012)
Degree Days  
Heating Degree Days 48    
Moisture  
Dew Point 14 °F    
Average Humidity 89    
Maximum Humidity 93    
Minimum Humidity 85    
Precipitation  
Precipitation 0.00 in - - ()
Sea Level Pressure  
Sea Level Pressure 29.50 in    
Wind  
Wind Speed 4 mph ()    
Max Wind Speed 8 mph    
Max Gust Speed -    
Visibility 6.0 miles    
Events Snow    
Averages and records for this station are not official NWS values.
T = Trace of Precipitation, MM = Missing Value Source: Averaged Metar Reports

Daily Weather History Graph

Daily Weather History Graph

Search for Another Location

Airport or City:

Trip Planner

Search our weather history database for the weather conditions in past years. The results will help you decide how hot, cold, wet, or windy it might be!

Date:

Astronomy

Dec. 05, 2012 Rise Set
Actual Time 8:35 AM CET 3:52 PM CET
Civil Twilight 7:49 AM CET 4:38 PM CET
Nautical Twilight 7:01 AM CET 5:26 PM CET
Astronomical Twilight 6:16 AM CET 6:11 PM CET
Moon 11:18 PM CET (12/5) 12:03 PM CET (12/5)
Length of Visible Light 8h 48m
Length of Day
7h 17m
Waning Gibbous, 62% of the Moon is Illuminated
Dec 5
Waning Gibbous
Dec 6
Last Quarter
Dec 13
New
Dec 20
First Quarter
Dec 28
Full

Hourly Weather History & Observations

Time (CET) Temp. Windchill Dew Point Humidity Pressure Visibility Wind Dir Wind Speed Gust Speed Precip Events Conditions
12:20 AM 14.0 °F 2.9 °F 12.2 °F 93% 29.44 in 6.2 mi NW 8.1 mph - N/A   Scattered Clouds
12:50 AM 14.0 °F 3.9 °F 12.2 °F 93% 29.44 in 6.2 mi NW 6.9 mph - N/A   Scattered Clouds
1:20 AM 15.8 °F 6.1 °F 14.0 °F 93% 29.44 in 6.2 mi WNW 6.9 mph - N/A   Scattered Clouds
1:50 AM 15.8 °F 5.1 °F 14.0 °F 93% 29.44 in 6.2 mi NW 8.1 mph - N/A   Scattered Clouds
2:20 AM 17.6 °F 8.2 °F 15.8 °F 93% 29.44 in 5.6 mi NW 6.9 mph - N/A Snow Light Snow Showers
2:50 AM 17.6 °F 12.3 °F 15.8 °F 93% 29.44 in 5.6 mi NW 3.5 mph - N/A Snow Light Snow Showers
3:20 AM 17.6 °F 12.3 °F 15.8 °F 93% 29.44 in 5.6 mi NNW 3.5 mph - N/A Snow Light Snow Showers
3:50 AM 19.4 °F 12.8 °F 15.8 °F 86% 29.47 in 5.6 mi NNW 4.6 mph - N/A Snow Light Snow Showers
4:20 AM 19.4 °F 11.5 °F 17.6 °F 93% 29.47 in 5.6 mi NNW 5.8 mph - N/A Snow Light Snow Showers
4:50 AM 19.4 °F 9.5 °F 17.6 °F 93% 29.47 in 6.2 mi NW 8.1 mph - N/A Snow Light Snow Showers
5:20 AM 17.6 °F 10.7 °F 15.8 °F 93% 29.47 in 6.2 mi WNW 4.6 mph - N/A   Mostly Cloudy
5:50 AM 15.8 °F 7.2 °F 14.0 °F 93% 29.47 in 6.2 mi NW 5.8 mph - N/A   Mostly Cloudy
6:20 AM 15.8 °F 7.2 °F 12.2 °F 86% 29.47 in 6.2 mi NNW 5.8 mph - N/A   Scattered Clouds
6:50 AM 14.0 °F 6.5 °F 12.2 °F 93% 29.47 in 6.2 mi NW 4.6 mph - N/A   Partly Cloudy
7:20 AM 14.0 °F - 12.2 °F 93% 29.47 in - West 1.2 mph - N/A   Clear
7:50 AM 14.0 °F - 10.4 °F 86% 29.50 in 6.2 mi West 1.2 mph - N/A   Partly Cloudy
8:20 AM 12.2 °F 2.9 °F 10.4 °F 92% 29.50 in - WNW 5.8 mph - N/A   Clear
8:50 AM 12.2 °F 2.9 °F 8.6 °F 85% 29.50 in - West 5.8 mph - N/A   Clear
9:20 AM 12.2 °F 6.1 °F 8.6 °F 85% 29.50 in - West 3.5 mph - N/A   Clear
9:50 AM 14.0 °F - 12.2 °F 93% 29.50 in - WNW 2.3 mph - N/A   Clear
10:20 AM 17.6 °F - 14.0 °F 86% 29.53 in - Calm Calm - N/A   Clear
10:50 AM 17.6 °F - 14.0 °F 86% 29.53 in - West 1.2 mph - N/A   Clear
11:20 AM 17.6 °F - 15.8 °F 93% 29.53 in - West 2.3 mph - N/A   Clear
11:50 AM 17.6 °F 10.7 °F 15.8 °F 93% 29.50 in - West 4.6 mph - N/A   Clear
12:20 PM 19.4 °F 12.8 °F 15.8 °F 86% 29.50 in - West 4.6 mph - N/A   Clear
12:50 PM 21.2 °F - 17.6 °F 86% 29.50 in - West 1.2 mph - N/A   Clear
1:20 PM 19.4 °F 11.5 °F 15.8 °F 86% 29.50 in - West 5.8 mph - N/A   Clear
1:50 PM 19.4 °F 10.4 °F 15.8 °F 86% 29.50 in - West 6.9 mph - N/A   Clear
3:50 PM 19.4 °F - 15.8 °F 86% 29.50 in - Calm Calm - N/A   Clear
4:20 PM 17.6 °F - 14.0 °F 86% 29.50 in - Calm Calm - N/A   Clear
4:50 PM 17.6 °F - 14.0 °F 86% 29.50 in - Calm Calm - N/A   Clear
5:20 PM 15.8 °F - 12.2 °F 86% 29.53 in - East 1.2 mph - N/A   Clear
5:50 PM 14.0 °F - 10.4 °F 86% 29.53 in - NE 2.3 mph - N/A   Clear
6:20 PM 15.8 °F 7.2 °F 14.0 °F 93% 29.53 in - North 5.8 mph - N/A   Clear
6:50 PM 19.4 °F 11.5 °F 17.6 °F 93% 29.53 in - NNE 5.8 mph - N/A   Clear
7:20 PM 19.4 °F 12.8 °F 15.8 °F 86% 29.53 in - NE 4.6 mph - N/A   Clear
7:50 PM 19.4 °F 12.8 °F 17.6 °F 93% 29.53 in - NNE 4.6 mph - N/A   Clear
8:20 PM 19.4 °F - 15.8 °F 86% 29.56 in - North 2.3 mph - N/A   Clear
8:50 PM 19.4 °F - 15.8 °F 86% 29.56 in - North 2.3 mph - N/A   Clear
9:20 PM 17.6 °F 10.7 °F 15.8 °F 93% 29.56 in - North 4.6 mph - N/A   Clear
9:50 PM 17.6 °F 12.3 °F 14.0 °F 86% 29.56 in - NNW 3.5 mph - N/A   Clear
10:20 PM 17.6 °F 12.3 °F 14.0 °F 86% 29.56 in - WNW 3.5 mph - N/A   Clear
10:50 PM 15.8 °F 8.6 °F 14.0 °F 93% 29.56 in - NW 4.6 mph - N/A   Clear
11:20 PM 15.8 °F 7.2 °F 12.2 °F 86% 29.59 in - NNW 5.8 mph - N/A   Clear
11:50 PM 15.8 °F 7.2 °F 12.2 °F 86% 29.59 in - NNW 5.8 mph - N/A   Clear